DW4248 Weather Reports


Display with metric or nautical units.
time (UTC)temp
F
wind
direction
speed
MPH
gust
MPH
rain 1hr
in
rain 24hr
in
rain mn
in
humidity
%
barometer
mb
20260903093603 82 123 0.0 1.0 0.00 0.00 0.00 71 1014.7
20260903092724 82 120 0.0 1.0 0.00 0.00 0.00 71 1014.7
20260903091824 82 123 0.0 1.0 0.00 0.00 0.00 70 1014.7
20260903090924 83 0 0.0 0.0 0.00 0.00 0.00 70 1014.7
20260903090024 83 142 0.0 1.0 0.00 0.00 0.00 70 1014.6
20260903085424 83 133 0.0 1.0 0.00 0.00 0.00 70 1014.6
20260903084503 83 140 0.0 1.0 0.00 0.00 0.00 69 1014.7
20260903083603 83 138 0.0 1.0 0.00 0.00 0.00 69 1014.6
20260903082703 83 145 0.0 1.0 0.00 0.00 0.00 69 1014.7
20260903081803 83 115 0.0 1.0 0.00 0.00 0.00 69 1014.6
20260903080903 83 124 0.0 2.0 0.00 0.00 0.00 70 1014.6
20260903080003 83 137 0.0 1.0 0.00 0.00 0.00 70 1014.6
20260903075403 83 134 0.0 1.0 0.00 0.00 0.00 70 1014.5
20260903074503 83 136 0.0 1.0 0.00 0.00 0.00 71 1014.5
20260903073603 83 0 0.0 1.0 0.00 0.00 0.00 71 1014.5
20260903072703 83 0 0.0 0.0 0.00 0.00 0.00 71 1014.6
20260903071824 83 0 0.0 0.0 0.00 0.00 0.00 70 1014.5
20260903070924 84 0 0.0 0.0 0.00 0.00 0.00 70 1014.5
20260903070024 84 0 0.0 0.0 0.00 0.00 0.00 69 1014.5
20260903065424 84 0 0.0 0.0 0.00 0.00 0.00 69 1014.5
20260903064524 84 0 0.0 1.0 0.00 0.00 0.00 68 1014.6
20260903063624 84 0 0.0 0.0 0.00 0.00 0.00 68 1014.5
20260903062724 85 0 0.0 1.0 0.00 0.00 0.00 67 1014.6
20260903061824 85 0 0.0 0.0 0.00 0.00 0.00 66 1014.6
20260903060924 86 211 0.0 1.0 0.00 0.00 0.00 65 1014.6
20260903060024 86 133 0.0 1.0 0.00 0.00 0.00 65 1014.6
20260903055403 86 132 0.0 2.0 0.00 0.00 0.00 65 1014.5
20260903054503 86 139 0.0 3.0 0.00 0.00 0.00 65 1014.5
20260903053603 86 138 0.0 3.0 0.00 0.00 0.00 65 1014.5
20260903052704 86 119 0.0 2.0 0.00 0.00 0.00 64 1014.6
20260903051804 86 129 0.0 3.0 0.00 0.00 0.00 64 1014.5
20260903050903 86 137 0.0 2.0 0.00 0.00 0.00 64 1014.5
20260903050005 86 133 0.0 1.0 0.00 0.00 0.00 65 1014.4
20260903045403 86 134 0.0 1.0 0.00 0.00 0.00 65 1014.4
20260903044503 87 146 0.0 2.0 0.00 0.00 0.00 65 1014.4
20260903043603 87 134 0.0 3.0 0.00 0.00 0.00 65 1014.4
20260903042703 87 139 0.0 3.0 0.00 0.00 0.00 64 1014.4
20260903041803 87 135 0.0 1.0 0.00 0.00 0.00 64 1014.4
20260903040903 87 132 0.0 2.0 0.00 0.00 0.00 64 1014.4
20260903040003 87 0 0.0 1.0 0.00 0.00 0.00 64 1014.4
20260903035403 88 124 0.0 1.0 0.00 0.00 0.00 63 1014.5
20260903034503 88 129 0.0 1.0 0.00 0.00 0.00 63 1014.5
20260903033603 88 0 0.0 1.0 0.00 0.00 0.00 62 1014.5
20260903032703 88 141 0.0 1.0 0.00 0.00 0.00 62 1014.5
20260903031803 89 141 0.0 1.0 0.00 0.00 0.00 61 1014.4
20260903030903 89 137 0.0 1.0 0.00 0.00 0.00 60 1014.4
20260903030003 89 135 0.0 3.0 0.00 0.00 0.00 60 1014.4
20260903025403 89 135 0.0 3.0 0.00 0.00 0.00 60 1014.4
20260903024503 90 132 1.0 4.0 0.00 0.00 0.00 59 1014.4
20260903023603 90 142 0.0 3.0 0.00 0.00 0.00 58 1014.3
20260903022703 90 141 0.0 2.0 0.00 0.00 0.00 57 1014.3
20260903021803 91 129 0.0 4.0 0.00 0.00 0.00 56 1014.2
20260903020903 91 128 0.0 3.0 0.00 0.00 0.00 55 1014.1
20260903020003 91 138 0.0 3.0 0.00 0.00 0.00 55 1014.1
20260903015403 91 138 0.0 3.0 0.00 0.00 0.00 54 1014.0
20260903014503 91 134 0.0 2.0 0.00 0.00 0.00 54 1013.9
20260903013603 91 135 0.0 2.0 0.00 0.00 0.00 53 1013.7
20260903012703 91 138 1.0 4.0 0.00 0.00 0.00 53 1013.6
20260903011803 90 145 0.0 2.0 0.00 0.00 0.00 54 1013.5
20260903010903 90 0 0.0 0.0 0.00 0.00 0.00 55 1013.5
20260903010003 91 0 0.0 0.0 0.00 0.00 0.00 55 1013.4
20260903005403 91 0 0.0 0.0 0.00 0.00 0.00 54 1013.4
20260903004503 92 0 0.0 0.0 0.00 0.00 0.00 53 1013.4
20260903003603 94 0 0.0 0.0 0.00 0.00 0.00 50 1013.4
20260903002703 94 0 0.0 0.0 0.00 0.00 0.00 50 1013.3
20260903001803 95 132 0.0 1.0 0.00 0.00 0.00 45 1013.4
20260903000903 96 132 0.0 1.0 0.00 0.00 0.00 43 1013.4
20260903000003 96 128 0.0 2.0 0.00 0.00 0.00 43 1013.3
20260902235403 97 131 0.0 2.0 0.00 0.00 0.00 42 1013.4
20260902234503 97 149 0.0 2.0 0.00 0.00 0.00 42 1013.3
20260902233603 97 140 0.0 2.0 0.00 0.00 0.00 42 1013.3
20260902232703 98 141 0.0 3.0 0.00 0.00 0.00 41 1013.3
20260902231803 98 126 0.0 1.0 0.00 0.00 0.00 43 1013.3
20260902230903 98 234 0.0 1.0 0.00 0.00 0.00 41 1013.3
20260902230003 98 177 1.0 4.0 0.00 0.00 0.00 41 1013.3
20260902225403 98 151 1.0 4.0 0.00 0.00 0.00 42 1013.3
20260902224503 98 333 1.0 3.0 0.00 0.00 0.00 43 1013.3
20260902223603 99 250 0.0 3.0 0.00 0.00 0.00 41 1013.3
20260902222703 99 203 1.0 3.0 0.00 0.00 0.00 41 1013.3
20260902221803 99 301 0.0 3.0 0.00 0.00 0.00 41 1013.4
20260902220903 99 335 0.0 2.0 0.00 0.00 0.00 43 1013.4
20260902220003 99 168 0.0 2.0 0.00 0.00 0.00 41 1013.4
20260902215403 100 109 0.0 2.0 0.00 0.00 0.00 41 1013.5
20260902214503 100 140 1.0 4.0 0.00 0.00 0.00 40 1013.5
20260902213603 100 226 1.0 3.0 0.00 0.00 0.00 41 1013.6
20260902212703 99 201 2.0 7.0 0.00 0.00 0.00 42 1013.7
20260902211803 99 5 2.0 7.0 0.00 0.00 0.00 41 1013.7
20260902210903 100 4 1.0 7.0 0.00 0.00 0.00 41 1013.8
20260902210004 100 143 1.0 7.0 0.00 0.00 0.00 41 1014.0
20260902205403 100 144 1.0 5.0 0.00 0.00 0.00 40 1014.0
20260902204503 100 222 2.0 6.0 0.00 0.00 0.00 40 1014.0
20260902203603 101 157 1.0 4.0 0.00 0.00 0.00 41 1014.2
20260902202703 100 154 1.0 4.0 0.00 0.00 0.00 42 1014.3
20260902201803 100 183 1.0 4.0 0.00 0.00 0.00 42 1014.4
20260902200903 100 143 1.0 2.0 0.00 0.00 0.00 42 1014.5
20260902200003 99 165 1.0 2.0 0.00 0.00 0.00 46 1014.7
20260902195403 98 275 1.0 3.0 0.00 0.00 0.00 46 1014.7
20260902194503 98 301 1.0 4.0 0.00 0.00 0.00 44 1014.8
20260902193603 99 264 1.0 4.0 0.00 0.00 0.00 43 1014.9
20260902192703 100 158 1.0 3.0 0.00 0.00 0.00 43 1014.9
20260902191803 99 285 2.0 6.0 0.00 0.00 0.00 44 1015.0
20260902190903 99 138 2.0 4.0 0.00 0.00 0.00 45 1015.0
20260902190003 99 140 1.0 3.0 0.00 0.00 0.00 48 1015.2
20260902185403 98 303 1.0 5.0 0.00 0.00 0.00 49 1015.2
20260902184503 98 339 2.0 5.0 0.00 0.00 0.00 48 1015.4
20260902183603 98 164 2.0 6.0 0.00 0.00 0.00 49 1015.5
20260902182703 96 327 2.0 8.0 0.00 0.00 0.00 50 1015.5
20260902181803 96 342 3.0 11.0 0.00 0.00 0.00 50 1015.6
20260902180903 96 345 4.0 13.0 0.00 0.00 0.00 50 1015.7
20260902180006 96 335 2.0 13.0 0.00 0.00 0.00 48 1015.8
20260902175403 96 292 2.0 7.0 0.00 0.00 0.00 49 1015.9
20260902174503 96 184 2.0 5.0 0.00 0.00 0.00 49 1016.0
20260902173603 96 164 2.0 7.0 0.00 0.00 0.00 53 1016.1
20260902172703 95 208 1.0 7.0 0.00 0.00 0.00 53 1016.2
20260902171803 94 347 2.0 8.0 0.00 0.00 0.00 54 1016.4
20260902170903 94 343 2.0 6.0 0.00 0.00 0.00 53 1016.5
20260902170003 94 336 2.0 9.0 0.00 0.00 0.00 56 1016.6
20260902165403 94 330 2.0 9.0 0.00 0.00 0.00 54 1016.7
20260902164503 94 225 1.0 7.0 0.00 0.00 0.00 54 1016.7
20260902163603 93 340 3.0 10.0 0.00 0.00 0.00 55 1016.8
20260902162703 93 346 2.0 8.0 0.00 0.00 0.00 55 1016.8
20260902161803 93 301 2.0 5.0 0.00 0.00 0.00 55 1016.8
20260902160903 93 310 2.0 6.0 0.00 0.00 0.00 55 1016.8
20260902160004 92 211 1.0 5.0 0.00 0.00 0.00 56 1016.9
20260902155403 92 319 1.0 7.0 0.00 0.00 0.00 56 1016.9
20260902154503 92 313 2.0 4.0 0.00 0.00 0.00 56 1016.9
20260902153603 92 261 2.0 10.0 0.00 0.00 0.00 55 1016.9
20260902152703 91 256 1.0 5.0 0.00 0.00 0.00 58 1016.8
20260902151803 91 178 2.0 6.0 0.00 0.00 0.00 57 1016.8
20260902150903 90 184 2.0 8.0 0.00 0.00 0.00 59 1016.8
20260902150003 90 173 2.0 8.0 0.00 0.00 0.00 59 1016.8
20260902145403 90 165 2.0 6.0 0.00 0.00 0.00 60 1016.8
20260902144503 89 289 2.0 8.0 0.00 0.00 0.00 61 1016.8
20260902143603 88 185 1.0 4.0 0.00 0.00 0.00 61 1016.8
20260902142705 87 199 1.0 7.0 0.00 0.00 0.00 63 1016.8
20260902141803 87 146 1.0 5.0 0.00 0.00 0.00 66 1016.8
20260902140903 86 223 1.0 3.0 0.00 0.00 0.00 65 1016.8
20260902140003 85 246 1.0 3.0 0.00 0.00 0.00 68 1017.0
20260902135403 85 203 1.0 3.0 0.00 0.00 0.00 68 1017.0
20260902134503 84 59 0.0 3.0 0.00 0.00 0.00 69 1017.0
20260902133603 83 220 0.0 2.0 0.00 0.00 0.00 71 1017.1
20260902132724 82 215 0.0 1.0 0.00 0.00 0.00 73 1017.2
20260902131824 82 228 0.0 2.0 0.00 0.00 0.00 73 1017.2
20260902130924 81 0 0.0 1.0 0.00 0.00 0.00 74 1017.2
20260902130024 81 162 0.0 1.0 0.00 0.00 0.00 75 1017.1
20260902125424 81 129 0.0 1.0 0.00 0.00 0.00 74 1017.1
20260902124504 81 131 0.0 1.0 0.00 0.00 0.00 75 1017.0
20260902123603 80 129 0.0 1.0 0.00 0.00 0.00 75 1017.0
20260902122703 80 129 0.0 1.0 0.00 0.00 0.00 75 1016.9
20260902121810 80 129 0.0 1.0 0.00 0.00 0.00 76 1016.8
20260902120903 80 129 0.0 1.0 0.00 0.00 0.00 76 1016.8
20260902120004 80 129 0.0 1.0 0.00 0.00 0.00 75 1016.7
20260902115403 80 129 0.0 1.0 0.00 0.00 0.00 75 1016.6
20260902114503 80 129 0.0 1.0 0.00 0.00 0.00 74 1016.6
20260902113603 80 130 0.0 1.0 0.00 0.00 0.00 74 1016.5
20260902112703 80 129 0.0 1.0 0.00 0.00 0.00 74 1016.4
20260902111803 80 128 0.0 1.0 0.00 0.00 0.00 74 1016.4
20260902110903 81 128 0.0 1.0 0.00 0.00 0.00 73 1016.4
20260902110005 81 0 0.0 0.0 0.00 0.00 0.00 73 1016.4
20260902105403 81 129 0.0 1.0 0.00 0.00 0.00 73 1016.4
20260902104503 81 132 0.0 1.0 0.00 0.00 0.00 72 1016.3
20260902103603 81 0 0.0 1.0 0.00 0.00 0.00 72 1016.3
20260902102703 81 136 0.0 1.0 0.00 0.00 0.00 72 1016.2
20260902101803 82 145 0.0 1.0 0.00 0.00 0.00 71 1016.2
20260902100903 82 144 0.0 1.0 0.00 0.00 0.00 71 1016.2
20260902100004 82 132 0.0 1.0 0.00 0.00 0.00 70 1016.0
20260902095403 82 130 0.0 1.0 0.00 0.00 0.00 70 1016.1
20260902094503 83 149 0.0 2.0 0.00 0.00 0.00 70 1016.0